TimeEST,TemperatureF,Dew PointF,Humidity,Sea Level PressureIn,VisibilityMPH,Wind Direction,Wind SpeedMPH,Gust SpeedMPH,PrecipitationIn,Events,Conditions,WindDirDegrees,DateUTC
12:15 AM,28.9,18.7,66,30.38,10.0,North,-9999.0,-,N/A,,Overcast,0,2013-11-24 05:15:00
12:35 AM,28.4,16.3,61,30.38,10.0,North,-9999.0,-,N/A,Snow,Light Snow,0,2013-11-24 05:35:00
12:55 AM,27.5,18.1,68,30.38,10.0,North,-9999.0,-,N/A,,Overcast,0,2013-11-24 05:55:00
1:15 AM,27.5,18.0,67,30.38,10.0,North,-9999.0,-,N/A,,Overcast,0,2013-11-24 06:15:00
1:35 AM,27.3,17.6,67,30.38,10.0,North,-9999.0,-,N/A,,Overcast,0,2013-11-24 06:35:00
1:55 AM,26.6,16.5,66,30.39,10.0,North,-9999.0,-,N/A,,Overcast,0,2013-11-24 06:55:00
2:15 AM,26.2,14.9,62,30.39,10.0,North,-9999.0,-,N/A,,Overcast,0,2013-11-24 07:15:00
2:35 AM,25.3,10.9,54,30.41,10.0,North,-9999.0,-,N/A,,Mostly Cloudy,0,2013-11-24 07:35:00
2:55 AM,25.3,11.7,56,30.42,10.0,North,-9999.0,-,N/A,,Overcast,0,2013-11-24 07:55:00
3:15 AM,24.8,12.7,60,30.42,10.0,North,-9999.0,-,N/A,,Overcast,0,2013-11-24 08:15:00
3:35 AM,25.0,13.1,61,30.42,10.0,North,-9999.0,-,N/A,,Overcast,0,2013-11-24 08:35:00
3:55 AM,24.8,14.4,65,30.42,10.0,North,-9999.0,-,N/A,,Overcast,0,2013-11-24 08:55:00
4:15 AM,24.6,15.3,68,30.42,7.0,North,-9999.0,-,N/A,Snow,Light Snow,0,2013-11-24 09:15:00
4:35 AM,23.9,16.3,73,30.43,7.0,North,-9999.0,-,N/A,Snow,Light Snow,0,2013-11-24 09:35:00
4:55 AM,23.4,15.4,72,30.44,10.0,North,-9999.0,-,N/A,,Mostly Cloudy,0,2013-11-24 09:55:00
5:15 AM,23.0,13.5,67,30.45,10.0,North,-9999.0,-,N/A,,Mostly Cloudy,0,2013-11-24 10:15:00
5:35 AM,22.1,12.7,67,30.45,10.0,North,-9999.0,-,N/A,,Mostly Cloudy,0,2013-11-24 10:35:00
5:55 AM,21.4,10.8,64,30.47,10.0,North,-9999.0,-,N/A,,Mostly Cloudy,0,2013-11-24 10:55:00
6:15 AM,21.0,10.4,64,30.47,10.0,North,-9999.0,-,N/A,,Mostly Cloudy,0,2013-11-24 11:15:00
6:35 AM,20.5,10.2,65,30.48,10.0,North,-9999.0,-,N/A,,Scattered Clouds,0,2013-11-24 11:35:00
6:55 AM,19.9,8.6,61,30.49,10.0,North,-9999.0,-,N/A,,Scattered Clouds,0,2013-11-24 11:55:00
7:15 AM,19.4,8.2,62,30.51,10.0,North,-9999.0,-,N/A,,Mostly Cloudy,0,2013-11-24 12:15:00
7:35 AM,19.2,8.6,63,30.51,10.0,North,-9999.0,-,N/A,,Mostly Cloudy,0,2013-11-24 12:35:00
7:55 AM,19.2,9.3,65,30.53,10.0,North,-9999.0,-,N/A,,Scattered Clouds,0,2013-11-24 12:55:00
8:15 AM,20.1,9.3,63,30.54,10.0,North,-9999.0,-,N/A,,Scattered Clouds,0,2013-11-24 13:15:00
8:35 AM,20.8,9.3,61,30.54,10.0,North,-9999.0,-,N/A,,Clear,0,2013-11-24 13:35:00
8:55 AM,21.4,7.7,56,30.54,10.0,North,-9999.0,-,N/A,,Clear,0,2013-11-24 13:55:00
9:15 AM,22.1,8.1,55,30.55,10.0,North,-9999.0,-,N/A,,Clear,0,2013-11-24 14:15:00
9:35 AM,22.6,7.2,52,30.56,10.0,North,-9999.0,-,N/A,,Clear,0,2013-11-24 14:35:00
9:55 AM,24.4,8.8,51,30.56,10.0,North,-9999.0,-,N/A,,Clear,0,2013-11-24 14:55:00
10:15 AM,24.4,6.6,47,30.58,10.0,North,-9999.0,-,N/A,,Clear,0,2013-11-24 15:15:00
10:35 AM,24.3,6.8,47,30.57,10.0,North,-9999.0,-,N/A,,Clear,0,2013-11-24 15:35:00
10:55 AM,25.2,6.8,46,30.58,10.0,North,-9999.0,-,N/A,,Clear,0,2013-11-24 15:55:00
11:15 AM,26.8,8.6,46,30.56,10.0,North,-9999.0,-,N/A,,Clear,0,2013-11-24 16:15:00
11:35 AM,26.2,6.6,43,30.55,10.0,North,-9999.0,-,N/A,,Clear,0,2013-11-24 16:35:00
11:55 AM,27.1,7.3,43,30.54,10.0,North,-9999.0,-,N/A,,Clear,0,2013-11-24 16:55:00
12:15 PM,27.7,8.4,44,30.54,10.0,North,-9999.0,-,N/A,,Clear,0,2013-11-24 17:15:00
12:35 PM,28.6,7.3,41,30.52,10.0,North,-9999.0,-,N/A,,Clear,0,2013-11-24 17:35:00
12:55 PM,28.4,8.1,42,30.51,10.0,North,-9999.0,-,N/A,,Clear,0,2013-11-24 17:55:00
1:15 PM,28.9,7.3,40,30.51,10.0,North,-9999.0,-,N/A,,Clear,0,2013-11-24 18:15:00
1:35 PM,28.9,7.0,40,30.50,10.0,North,-9999.0,-,N/A,,Clear,0,2013-11-24 18:35:00
1:55 PM,28.9,5.9,38,30.50,10.0,North,-9999.0,-,N/A,,Clear,0,2013-11-24 18:55:00
2:15 PM,29.7,6.4,38,30.51,10.0,North,-9999.0,-,N/A,,Clear,0,2013-11-24 19:15:00
2:35 PM,29.8,6.4,37,30.50,10.0,North,-9999.0,-,N/A,,Clear,0,2013-11-24 19:35:00
2:55 PM,29.8,5.7,36,30.50,10.0,North,-9999.0,-,N/A,,Clear,0,2013-11-24 19:55:00
3:15 PM,30.0,5.7,36,30.50,10.0,North,-9999.0,-,N/A,,Clear,0,2013-11-24 20:15:00
3:35 PM,28.9,5.2,37,30.50,10.0,North,-9999.0,-,N/A,,Clear,0,2013-11-24 20:35:00
3:55 PM,27.9,6.1,40,30.50,10.0,North,-9999.0,-,N/A,,Clear,0,2013-11-24 20:55:00
4:15 PM,27.5,6.1,40,30.50,10.0,North,-9999.0,-,N/A,,Clear,0,2013-11-24 21:15:00
4:35 PM,27.0,5.7,41,30.51,10.0,North,-9999.0,-,N/A,,Clear,0,2013-11-24 21:35:00
4:55 PM,26.4,5.9,42,30.51,10.0,North,-9999.0,-,N/A,,Clear,0,2013-11-24 21:55:00
5:15 PM,25.5,8.4,48,30.51,10.0,North,-9999.0,-,N/A,,Clear,0,2013-11-24 22:15:00
5:35 PM,24.8,7.3,48,30.51,10.0,North,-9999.0,-,N/A,,Clear,0,2013-11-24 22:35:00
5:55 PM,24.8,7.9,49,30.51,10.0,North,-9999.0,-,N/A,,Clear,0,2013-11-24 22:55:00
6:15 PM,23.0,11.3,61,30.51,10.0,North,-9999.0,-,N/A,,Clear,0,2013-11-24 23:15:00
6:35 PM,22.6,11.7,63,30.51,10.0,North,-9999.0,-,N/A,,Clear,0,2013-11-24 23:35:00
6:55 PM,21.6,14.0,73,30.52,10.0,North,-9999.0,-,N/A,,Clear,0,2013-11-24 23:55:00
7:15 PM,21.0,13.6,73,30.52,10.0,North,-9999.0,-,N/A,,Clear,0,2013-11-25 00:15:00
7:35 PM,20.8,13.8,74,30.53,10.0,North,-9999.0,-,N/A,,Clear,0,2013-11-25 00:35:00
7:55 PM,20.3,14.7,79,30.52,10.0,North,-9999.0,-,N/A,,Clear,0,2013-11-25 00:55:00
8:15 PM,20.1,15.1,81,30.52,10.0,North,-9999.0,-,N/A,,Clear,0,2013-11-25 01:15:00
8:35 PM,19.9,14.7,80,30.52,10.0,North,-9999.0,-,N/A,,Clear,0,2013-11-25 01:35:00
8:55 PM,19.8,15.1,82,30.52,10.0,North,-9999.0,-,N/A,,Clear,0,2013-11-25 01:55:00
9:15 PM,19.8,14.9,81,30.52,10.0,North,-9999.0,-,N/A,,Clear,0,2013-11-25 02:15:00
9:35 PM,19.2,15.4,85,30.52,10.0,North,-9999.0,-,N/A,,Clear,0,2013-11-25 02:35:00
9:55 PM,19.0,15.4,86,30.52,10.0,North,-9999.0,-,N/A,,Clear,0,2013-11-25 02:55:00
10:15 PM,18.5,14.9,86,30.52,10.0,North,-9999.0,-,N/A,,Clear,0,2013-11-25 03:15:00
10:35 PM,18.5,14.9,86,30.52,10.0,North,-9999.0,-,N/A,,Clear,0,2013-11-25 03:35:00
10:55 PM,18.3,15.4,89,30.52,10.0,North,-9999.0,-,N/A,,Clear,0,2013-11-25 03:55:00
11:15 PM,18.0,15.4,90,30.52,10.0,North,-9999.0,-,N/A,,Clear,0,2013-11-25 04:15:00
11:35 PM,17.6,14.9,89,30.52,10.0,North,-9999.0,-,N/A,,Clear,0,2013-11-25 04:35:00
11:55 PM,17.6,15.3,91,30.53,10.0,North,-9999.0,-,N/A,,Clear,0,2013-11-25 04:55:00